Time,TemperatureF,DewpointF,PressureIn,WindDirection,WindDirectionDegrees,WindSpeedMPH,WindSpeedGustMPH,Humidity,HourlyPrecipIn,Conditions,Clouds,dailyrainin,SoftwareType,DateUTC
2013-06-12 00:00:00,66.0,17.0,30.04,ESE,106,0.0,-999.0,15,-99.99,,,0.01,weatherlink.com 1.10,2013-06-12 04:00:00,
2013-06-12 00:15:00,65.4,5.0,30.04,ESE,106,0.0,-999.0,9,-99.99,,,0.01,weatherlink.com 1.10,2013-06-12 04:15:00,
2013-06-12 00:30:00,65.0,-8.0,30.05,ESE,106,0.0,-999.0,5,-99.99,,,0.00,weatherlink.com 1.10,2013-06-12 04:30:00,
2013-06-12 00:45:00,64.8,-26.0,30.04,ESE,106,0.0,-999.0,2,-99.99,,,0.00,weatherlink.com 1.10,2013-06-12 04:45:00,
2013-06-12 01:00:00,64.4,-99.9,30.05,ESE,106,0.0,-999.0,0,-99.99,,,0.00,weatherlink.com 1.10,2013-06-12 05:00:00,
2013-06-12 01:15:00,64.3,-99.9,30.04,ESE,106,0.0,-999.0,0,-99.99,,,0.00,weatherlink.com 1.10,2013-06-12 05:15:00,
2013-06-12 01:30:00,64.5,-99.9,30.04,ESE,106,0.0,-999.0,0,-99.99,,,0.00,weatherlink.com 1.10,2013-06-12 05:30:00,
2013-06-12 01:45:00,64.6,-99.9,30.04,ESE,106,0.0,-999.0,0,-99.99,,,0.00,weatherlink.com 1.10,2013-06-12 05:45:00,
2013-06-12 02:00:00,64.7,-99.9,30.03,ESE,106,0.0,-999.0,0,-99.99,,,0.00,weatherlink.com 1.10,2013-06-12 06:00:00,
2013-06-12 02:15:00,64.5,-99.9,30.04,ESE,106,0.0,-999.0,0,-99.99,,,0.00,weatherlink.com 1.10,2013-06-12 06:15:00,
2013-06-12 02:30:00,64.7,-99.9,30.04,ESE,106,0.0,-999.0,0,-99.99,,,0.00,weatherlink.com 1.10,2013-06-12 06:30:00,
2013-06-12 02:45:00,64.7,-99.9,30.03,ESE,106,0.0,-999.0,0,-99.99,,,0.00,weatherlink.com 1.10,2013-06-12 06:45:00,
2013-06-12 03:00:00,64.6,-99.9,30.03,ESE,106,0.0,-999.0,0,-99.99,,,0.00,weatherlink.com 1.10,2013-06-12 07:00:00,
2013-06-12 03:15:00,64.3,-99.9,30.02,ESE,106,0.0,-999.0,0,-99.99,,,0.00,weatherlink.com 1.10,2013-06-12 07:15:00,
2013-06-12 03:30:00,64.3,-99.9,30.02,ESE,106,0.0,-999.0,0,-99.99,,,0.00,weatherlink.com 1.10,2013-06-12 07:30:00,
2013-06-12 03:45:00,64.3,-99.9,30.02,ESE,106,0.0,-999.0,0,-99.99,,,0.00,weatherlink.com 1.10,2013-06-12 07:45:00,
2013-06-12 04:00:00,63.9,-99.9,30.02,ESE,106,0.0,-999.0,0,-99.99,,,0.00,weatherlink.com 1.10,2013-06-12 08:00:00,
2013-06-12 04:15:00,63.6,-99.9,30.02,ESE,106,0.0,-999.0,0,-99.99,,,0.00,weatherlink.com 1.10,2013-06-12 08:15:00,
2013-06-12 04:30:00,63.7,-99.9,30.02,ESE,106,0.0,-999.0,0,-99.99,,,0.00,weatherlink.com 1.10,2013-06-12 08:30:00,
2013-06-12 04:45:00,63.8,-99.9,30.02,ESE,106,0.0,-999.0,0,-99.99,,,0.00,weatherlink.com 1.10,2013-06-12 08:45:00,
2013-06-12 05:00:00,64.0,-99.9,30.02,ESE,106,0.0,-999.0,0,-99.99,,,0.00,weatherlink.com 1.10,2013-06-12 09:00:00,
2013-06-12 05:15:00,64.1,-99.9,30.03,ESE,106,0.0,-999.0,0,-99.99,,,0.00,weatherlink.com 1.10,2013-06-12 09:15:00,
2013-06-12 05:30:00,64.0,-99.9,30.03,ESE,106,0.0,-999.0,0,-99.99,,,0.00,weatherlink.com 1.10,2013-06-12 09:30:00,
2013-06-12 05:45:00,63.9,-99.9,30.03,ESE,106,0.0,-999.0,0,-99.99,,,0.00,weatherlink.com 1.10,2013-06-12 09:45:00,
2013-06-12 06:00:00,63.9,-99.9,30.04,ESE,106,0.0,-999.0,0,-99.99,,,0.00,weatherlink.com 1.10,2013-06-12 10:00:00,
2013-06-12 06:15:00,63.8,-99.9,30.04,ESE,106,0.0,-999.0,0,-99.99,,,0.00,weatherlink.com 1.10,2013-06-12 10:15:00,
2013-06-12 06:30:00,63.9,-99.9,30.04,ESE,106,0.0,-999.0,0,-99.99,,,0.00,weatherlink.com 1.10,2013-06-12 10:30:00,
2013-06-12 06:45:00,63.9,-99.9,30.04,ESE,106,0.0,-999.0,0,-99.99,,,0.00,weatherlink.com 1.10,2013-06-12 10:45:00,
2013-06-12 07:00:00,64.0,-99.9,30.05,ESE,106,0.0,-999.0,0,-99.99,,,0.00,weatherlink.com 1.10,2013-06-12 11:00:00,
2013-06-12 07:15:00,64.1,-99.9,30.05,ESE,106,0.0,-999.0,0,-99.99,,,0.00,weatherlink.com 1.10,2013-06-12 11:15:00,
2013-06-12 07:30:00,64.5,-99.9,30.05,ESE,106,0.0,-999.0,0,-99.99,,,0.00,weatherlink.com 1.10,2013-06-12 11:30:00,
2013-06-12 07:45:00,64.9,-99.9,30.06,North,355,0.0,-999.0,0,-99.99,,,0.00,weatherlink.com 1.10,2013-06-12 11:45:00,
2013-06-12 08:00:00,65.1,-99.9,30.06,North,355,0.0,-999.0,0,-99.99,,,0.00,weatherlink.com 1.10,2013-06-12 12:00:00,
2013-06-12 08:15:00,65.6,-99.9,30.07,North,355,0.0,-999.0,0,-99.99,,,0.00,weatherlink.com 1.10,2013-06-12 12:15:00,
2013-06-12 08:30:00,66.2,-99.9,30.07,North,355,0.0,-999.0,0,-99.99,,,0.00,weatherlink.com 1.10,2013-06-12 12:30:00,
2013-06-12 08:45:00,66.9,-99.9,30.08,North,355,0.0,-999.0,0,-99.99,,,0.00,weatherlink.com 1.10,2013-06-12 12:45:00,
2013-06-12 09:00:00,67.7,-99.9,30.07,North,355,0.0,-999.0,0,-99.99,,,0.00,weatherlink.com 1.10,2013-06-12 13:00:00,
2013-06-12 09:15:00,68.8,-10.0,30.08,NNW,341,0.0,-999.0,4,-99.99,,,0.00,weatherlink.com 1.10,2013-06-12 13:15:00,
2013-06-12 09:30:00,70.2,22.0,30.08,North,355,0.0,-999.0,16,-99.99,,,0.00,weatherlink.com 1.10,2013-06-12 13:30:00,
2013-06-12 09:45:00,71.0,38.0,30.08,West,261,0.0,-999.0,30,-99.99,,,0.00,weatherlink.com 1.10,2013-06-12 13:45:00,
2013-06-12 10:00:00,71.8,39.0,30.07,West,261,0.0,-999.0,30,-99.99,,,0.00,weatherlink.com 1.10,2013-06-12 14:00:00,
2013-06-12 10:15:00,72.6,48.0,30.06,NW,312,0.0,-999.0,42,-99.99,,,0.00,weatherlink.com 1.10,2013-06-12 14:15:00,
2013-06-12 10:30:00,73.2,50.0,30.06,NW,312,0.0,-999.0,44,-99.99,,,0.00,weatherlink.com 1.10,2013-06-12 14:30:00,
2013-06-12 10:45:00,73.6,49.0,30.07,NW,312,0.0,-999.0,42,-99.99,,,0.00,weatherlink.com 1.10,2013-06-12 14:45:00,
2013-06-12 11:00:00,74.3,55.0,30.07,NW,312,0.0,-999.0,51,-99.99,,,0.00,weatherlink.com 1.10,2013-06-12 15:00:00,
2013-06-12 11:15:00,75.4,58.0,30.06,NW,312,0.0,-999.0,55,-99.99,,,0.00,weatherlink.com 1.10,2013-06-12 15:15:00,
2013-06-12 11:30:00,77.1,62.0,30.06,NW,312,0.0,-999.0,60,-99.99,,,0.00,weatherlink.com 1.10,2013-06-12 15:30:00,
2013-06-12 11:45:00,78.6,66.0,30.06,NNW,332,0.0,-999.0,65,-99.99,,,0.00,weatherlink.com 1.10,2013-06-12 15:45:00,
2013-06-12 12:00:00,80.1,68.0,30.05,NW,322,0.0,-999.0,67,-99.99,,,0.00,weatherlink.com 1.10,2013-06-12 16:00:00,
2013-06-12 12:15:00,81.9,69.0,30.04,NNW,327,0.0,-999.0,66,-99.99,,,0.00,weatherlink.com 1.10,2013-06-12 16:15:00,
2013-06-12 12:30:00,82.7,71.0,30.04,NNW,327,0.0,-999.0,68,-99.99,,,0.00,weatherlink.com 1.10,2013-06-12 16:30:00,
2013-06-12 12:45:00,82.4,71.0,30.04,NNW,327,0.0,-999.0,69,-99.99,,,0.00,weatherlink.com 1.10,2013-06-12 16:45:00,
2013-06-12 12:59:00,81.9,70.0,30.03,WNW,282,0.0,-999.0,68,-99.99,,,0.00,weatherlink.com 1.10,2013-06-12 16:59:00,
2013-06-12 13:14:00,82.3,69.0,30.02,WNW,282,0.0,-999.0,65,-99.99,,,0.00,weatherlink.com 1.10,2013-06-12 17:14:00,
2013-06-12 13:29:00,83.3,71.0,30.02,WNW,282,0.0,-999.0,67,-99.99,,,0.00,weatherlink.com 1.10,2013-06-12 17:29:00,
2013-06-12 13:45:00,84.5,73.0,30.01,NNW,327,0.0,-999.0,69,-99.99,,,0.00,weatherlink.com 1.10,2013-06-12 17:45:00,
2013-06-12 14:00:00,85.9,72.0,30.01,NNW,334,0.0,-999.0,64,-99.99,,,0.00,weatherlink.com 1.10,2013-06-12 18:00:00,
2013-06-12 14:15:00,86.8,74.0,30.01,West,281,0.0,-999.0,65,-99.99,,,0.00,weatherlink.com 1.10,2013-06-12 18:15:00,
2013-06-12 14:30:00,86.4,71.0,30.00,WNW,290,0.0,-999.0,61,-99.99,,,0.00,weatherlink.com 1.10,2013-06-12 18:30:00,
2013-06-12 14:45:00,86.9,74.0,30.00,NW,310,0.0,-999.0,65,-99.99,,,0.00,weatherlink.com 1.10,2013-06-12 18:45:00,
2013-06-12 14:59:00,87.5,72.0,30.00,WNW,292,0.0,-999.0,61,-99.99,,,0.00,weatherlink.com 1.10,2013-06-12 18:59:00,
2013-06-12 15:14:00,86.9,73.0,30.00,East,94,0.0,-999.0,63,-99.99,,,0.00,weatherlink.com 1.10,2013-06-12 19:14:00,
2013-06-12 15:29:00,86.0,73.0,30.00,SSE,150,0.0,-999.0,66,-99.99,,,0.00,weatherlink.com 1.10,2013-06-12 19:29:00,
2013-06-12 15:44:00,86.0,71.0,30.00,West,265,0.0,-999.0,61,-99.99,,,0.00,weatherlink.com 1.10,2013-06-12 19:44:00,
2013-06-12 15:59:00,86.6,71.0,29.99,WSW,258,2.0,-999.0,59,-99.99,,,0.00,weatherlink.com 1.10,2013-06-12 19:59:00,
2013-06-12 16:14:00,86.2,67.0,29.98,SE,143,0.0,-999.0,53,-99.99,,,0.00,weatherlink.com 1.10,2013-06-12 20:14:00,
2013-06-12 16:29:00,86.1,67.0,29.98,SSW,213,0.0,-999.0,54,-99.99,,,0.00,weatherlink.com 1.10,2013-06-12 20:29:00,
2013-06-12 16:44:00,86.0,69.0,29.97,East,80,1.0,-999.0,58,-99.99,,,0.00,weatherlink.com 1.10,2013-06-12 20:44:00,
2013-06-12 16:59:00,86.0,68.0,29.97,NNW,346,0.0,-999.0,56,-99.99,,,0.00,weatherlink.com 1.10,2013-06-12 20:59:00,
2013-06-12 17:14:00,85.8,69.0,29.97,ENE,58,0.0,-999.0,57,-99.99,,,0.00,weatherlink.com 1.10,2013-06-12 21:14:00,
2013-06-12 17:29:00,85.7,70.0,29.96,SE,129,1.0,-999.0,59,-99.99,,,0.00,weatherlink.com 1.10,2013-06-12 21:29:00,
2013-06-12 17:45:00,85.4,67.0,29.96,NE,36,0.0,-999.0,54,-99.99,,,0.00,weatherlink.com 1.10,2013-06-12 21:45:00,
2013-06-12 18:00:00,85.0,70.0,29.95,ENE,72,0.0,-999.0,61,-99.99,,,0.00,weatherlink.com 1.10,2013-06-12 22:00:00,
2013-06-12 18:15:00,84.1,73.0,29.95,SE,132,0.0,-999.0,69,-99.99,,,0.00,weatherlink.com 1.10,2013-06-12 22:15:00,
2013-06-12 18:30:00,83.2,72.0,29.95,East,100,0.0,-999.0,69,-99.99,,,0.00,weatherlink.com 1.10,2013-06-12 22:30:00,
2013-06-12 18:45:00,82.7,71.0,29.95,NE,54,0.0,-999.0,68,-99.99,,,0.00,weatherlink.com 1.10,2013-06-12 22:45:00,
2013-06-12 19:00:00,82.2,69.0,29.96,NE,55,0.0,-999.0,65,-99.99,,,0.00,weatherlink.com 1.10,2013-06-12 23:00:00,
2013-06-12 19:15:00,81.6,68.0,29.96,NE,56,0.0,-999.0,63,-99.99,,,0.00,weatherlink.com 1.10,2013-06-12 23:15:00,
2013-06-12 19:30:00,81.0,66.0,29.96,NE,56,0.0,-999.0,60,-99.99,,,0.00,weatherlink.com 1.10,2013-06-12 23:30:00,
2013-06-12 19:45:00,80.6,64.0,29.96,ENE,78,0.0,-999.0,57,-99.99,,,0.00,weatherlink.com 1.10,2013-06-12 23:45:00,
2013-06-12 20:00:00,80.2,63.0,29.97,ENE,78,0.0,-999.0,56,-99.99,,,0.00,weatherlink.com 1.10,2013-06-13 00:00:00,
2013-06-12 20:15:00,79.8,62.0,29.97,ENE,78,0.0,-999.0,55,-99.99,,,0.00,weatherlink.com 1.10,2013-06-13 00:15:00,
2013-06-12 20:30:00,79.2,58.0,29.97,ENE,78,0.0,-999.0,48,-99.99,,,0.00,weatherlink.com 1.10,2013-06-13 00:30:00,
2013-06-12 20:45:00,78.7,51.0,29.97,ENE,58,0.0,-999.0,38,-99.99,,,0.00,weatherlink.com 1.10,2013-06-13 00:45:00,
2013-06-12 21:00:00,78.2,46.0,29.97,ENE,58,0.0,-999.0,32,-99.99,,,0.00,weatherlink.com 1.10,2013-06-13 01:00:00,
2013-06-12 21:15:00,77.6,39.0,29.96,ENE,58,0.0,-999.0,25,-99.99,,,0.00,weatherlink.com 1.10,2013-06-13 01:15:00,
2013-06-12 21:30:00,77.2,38.0,29.96,ENE,58,0.0,-999.0,24,-99.99,,,0.00,weatherlink.com 1.10,2013-06-13 01:30:00,
2013-06-12 21:45:00,76.9,34.0,29.97,ENE,58,0.0,-999.0,21,-99.99,,,0.00,weatherlink.com 1.10,2013-06-13 01:45:00,
2013-06-12 22:00:00,76.5,25.0,29.97,ENE,58,0.0,-999.0,15,-99.99,,,0.00,weatherlink.com 1.10,2013-06-13 02:00:00,
2013-06-12 22:15:00,76.0,16.0,29.97,ENE,61,0.0,-999.0,10,-99.99,,,0.00,weatherlink.com 1.10,2013-06-13 02:15:00,
2013-06-12 22:30:00,75.5,7.0,29.98,ENE,61,0.0,-999.0,7,-99.99,,,0.00,weatherlink.com 1.10,2013-06-13 02:30:00,
2013-06-12 22:45:00,74.9,3.0,29.98,ENE,61,0.0,-999.0,6,-99.99,,,0.00,weatherlink.com 1.10,2013-06-13 02:45:00,
2013-06-12 23:00:00,74.4,-1.0,29.98,ENE,63,0.0,-999.0,5,-99.99,,,0.00,weatherlink.com 1.10,2013-06-13 03:00:00,
2013-06-12 23:15:00,73.4,33.0,29.97,ENE,63,0.0,-999.0,23,-99.99,,,0.00,weatherlink.com 1.10,2013-06-13 03:15:00,
2013-06-12 23:30:00,73.0,36.0,29.97,ENE,63,0.0,-999.0,26,-99.99,,,0.00,weatherlink.com 1.10,2013-06-13 03:30:00,
2013-06-12 23:45:00,72.9,29.0,29.96,ENE,63,0.0,-999.0,20,-99.99,,,0.00,weatherlink.com 1.10,2013-06-13 03:45:00,